Location: Limerick
(52.6650°N, 8.6230°W)
Time: 17:16:03
(UTC+00:00)

ISS - Pass Details

Date: 21 May 2017
Orbit: 403 x 406 km, 51.6° (Epoch: 15 December)

Event Time Altitude Azimuth Distance (km) Brightness Sun altitude
Exits shadow 02:01:44 41° 228° (SW) 623 -3.3 -16.8°
Maximum altitude 02:02:40 61° 167° (SSE) 477 -3.8 -16.8°
Drops below altitude 10° 02:05:58 10° 86° (E) 1,492 -0.8 -16.7°
Sets 02:08:04 0° 83° (E) 2,352 0.3 -16.7°
